Tracking 28790 objects as of 18-Apr-2024
HD Live streaming from Space Station
objects crossing your sky now

ARIANE 3 DEB

Track ARIANE 3 DEB now!
10-day predictions


NORAD ID: 22101
Int'l Code: 1988-063G
Perigee: 417.6 km
Apogee: 10,756.5 km
Inclination: 7.8 °
Period: 216.9 minutes
Semi major axis: 11958 km
RCS: 0.3069 m2 (medium)
Launch date: July 21, 1988
Source: France (FR)
Launch site: FRENCH GUIANA (FRGUI)

Note: This is SATELLITE DEBRIS
Your satellite tracking list
Your tracking list is empty




NASA's NSSDC Master Catalog

Two Line Element Set (TLE):
1 22101U 88063G   24109.38851315  .00024084  00000-0  11595-1 0  9991
2 22101   7.7882 182.2679 4322994  40.4477 344.7923  6.63917455284590
Source of the keplerian elements: AFSPC